Voltar ao catálogo

SL-12 R/B(2)

AtivoGEO
NORAD 19776·ROCKET BODY·🇷🇺 Russia

Lançado Jan 26, 1989 de Baikonur Cosmodrome

Loading…

TLE

AtualizadoSource: Space-Track

Época: Sep 14, 2026, 17:34 UTC

1 19776U 89004F   26257.73246074 -.00000029  00000-0  00000-0 0  9998
2 19776  12.7151 334.0321 0021548 135.5380 222.7844  0.97992466119260

Acompanhe SL-12 R/B(2) em tempo real com AllMySat

Download on the App Store